Weather History for Orange City, IA

Change the Weather History Date:

Saturday, July 13, 2013

  Actual Average Record
Temperature  
Mean Temperature 81 °F -  
Max Temperature 91 °F 81 °F 93 °F (2012)
Min Temperature 71 °F 64 °F 48 °F (1950)
Cooling Degree Days 16    
Growing Degree Days 31 (Base 50)    
Moisture  
Dew Point 64 °F    
Average Humidity 58    
Maximum Humidity 70    
Minimum Humidity 43    
Precipitation  
Precipitation 0.00 in - - ()
Sea Level Pressure  
Sea Level Pressure 29.95 in    
Wind  
Wind Speed 10 mph (SSE)    
Max Wind Speed 18 mph    
Max Gust Speed 23 mph    
Visibility 10 miles    
Events      
Averages and records for this station are not official NWS values.
T = Trace of Precipitation, MM = Missing Value Source: NWS Daily Summary

Daily Weather History Graph

Daily Weather History Graph

Search for Another Location

Airport:

Trip Planner

Search our weather history database for the weather conditions in past years. The results will help you decide how hot, cold, wet, or windy it might be!

Date:

Astronomy

Jul. 13, 2013 Rise Set
Actual Time 5:57 AM CDT 9:02 PM CDT
Civil Twilight 5:23 AM CDT 9:36 PM CDT
Nautical Twilight 4:39 AM CDT 10:20 PM CDT
Astronomical Twilight 3:46 AM CDT 11:12 PM CDT
Moon 11:24 AM CDT (7/13) 11:33 PM CDT (7/13)
Length of Visible Light 16h 13m
Length of Day
15h 05m
Waxing Crescent, 26% of the Moon is Illuminated
Jul 13
Waxing Crescent
Jul 15
First Quarter
Jul 22
Full
Jul 29
Last Quarter
Aug 6
New

Hourly Weather History & Observations

Time (CDT) Temp. Heat Index Dew Point Humidity Pressure Visibility Wind Dir Wind Speed Gust Speed Precip Events Conditions
12:15 AM 78.8 °F - 62.6 °F 57% 29.94 in 10.0 mi SSE 9.2 mph - N/A   Clear
12:35 AM 78.8 °F - 60.8 °F 54% 29.94 in 10.0 mi South 12.7 mph 17.3 mph N/A   Clear
12:55 AM 78.8 °F - 60.8 °F 54% 29.95 in 10.0 mi South 9.2 mph - N/A   Scattered Clouds
1:15 AM 78.8 °F - 60.8 °F 54% 29.96 in 10.0 mi South 11.5 mph 18.4 mph N/A   Mostly Cloudy
1:35 AM 78.8 °F - 60.8 °F 54% 29.95 in 10.0 mi South 11.5 mph - N/A   Mostly Cloudy
1:55 AM 77.0 °F - 60.8 °F 57% 29.94 in 10.0 mi South 12.7 mph 18.4 mph N/A   Mostly Cloudy
2:15 AM 77.0 °F - 60.8 °F 57% 29.94 in 10.0 mi South 12.7 mph 17.3 mph N/A   Scattered Clouds
2:35 AM 75.2 °F - 60.8 °F 61% 29.94 in 10.0 mi South 11.5 mph - N/A   Clear
2:55 AM 75.2 °F - 60.8 °F 61% 29.94 in 10.0 mi South 10.4 mph - N/A   Mostly Cloudy
3:15 AM 75.2 °F - 60.8 °F 61% 29.95 in 10.0 mi South 9.2 mph - N/A   Mostly Cloudy
3:35 AM 75.2 °F - 60.8 °F 61% 29.95 in 10.0 mi South 8.1 mph - N/A   Mostly Cloudy
3:55 AM 75.2 °F - 60.8 °F 61% 29.96 in 10.0 mi SW 3.5 mph - N/A   Scattered Clouds
4:15 AM 75.2 °F - 60.8 °F 61% 29.96 in 10.0 mi Calm Calm - N/A   Mostly Cloudy
4:35 AM 75.2 °F - 60.8 °F 61% 29.95 in 10.0 mi South 6.9 mph - N/A   Mostly Cloudy
4:55 AM 73.4 °F - 59.0 °F 61% 29.94 in 10.0 mi South 8.1 mph - N/A   Mostly Cloudy
5:15 AM 73.4 °F - 59.0 °F 61% 29.95 in 10.0 mi Calm Calm - N/A   Overcast
5:35 AM 73.4 °F - 60.8 °F 65% 29.95 in 10.0 mi SE 3.5 mph - N/A   Mostly Cloudy
5:55 AM 73.4 °F - 60.8 °F 65% 29.95 in 10.0 mi Calm Calm - N/A   Scattered Clouds
6:15 AM 71.6 °F - 60.8 °F 69% 29.95 in 10.0 mi East 3.5 mph - N/A   Clear
6:35 AM 71.6 °F - 60.8 °F 69% 29.95 in 10.0 mi SE 3.5 mph - N/A   Scattered Clouds
6:55 AM 71.6 °F - 60.8 °F 69% 29.96 in 10.0 mi East 3.5 mph - N/A   Scattered Clouds
7:15 AM 71.6 °F - 60.8 °F 69% 29.95 in 10.0 mi SE 4.6 mph - N/A   Scattered Clouds
7:35 AM 71.6 °F - 60.8 °F 69% 29.95 in 10.0 mi SE 6.9 mph - N/A   Clear
7:55 AM 71.6 °F - 60.8 °F 69% 29.95 in 10.0 mi SE 5.8 mph - N/A   Clear
8:15 AM 73.4 °F - 60.8 °F 65% 29.95 in 10.0 mi SSE 8.1 mph - N/A   Clear
8:35 AM 75.2 °F - 60.8 °F 61% 29.95 in 10.0 mi SSE 8.1 mph - N/A   Clear
8:55 AM 75.2 °F - 60.8 °F 61% 29.95 in 10.0 mi SSE 8.1 mph - N/A   Scattered Clouds
9:15 AM 75.2 °F - 62.6 °F 65% 29.96 in 10.0 mi South 8.1 mph - N/A   Clear
9:35 AM 78.8 °F - 64.4 °F 61% 29.95 in 10.0 mi South 10.4 mph - N/A   Clear
9:55 AM 78.8 °F - 62.6 °F 57% 29.95 in 10.0 mi South 9.2 mph - N/A   Clear
10:15 AM 78.8 °F - 64.4 °F 61% 29.95 in 10.0 mi South 11.5 mph 19.6 mph N/A   Clear
10:35 AM 80.6 °F 82.3 °F 64.4 °F 58% 29.96 in 10.0 mi South 11.5 mph 18.4 mph N/A   Clear
10:55 AM 80.6 °F 82.3 °F 64.4 °F 58% 29.96 in 10.0 mi South 12.7 mph 17.3 mph N/A   Clear
11:15 AM 84.2 °F 86.6 °F 66.2 °F 55% 29.96 in 10.0 mi South 11.5 mph 17.3 mph N/A   Clear
11:35 AM 84.2 °F 86.6 °F 66.2 °F 55% 29.94 in 10.0 mi South 11.5 mph - N/A   Clear
11:55 AM 84.2 °F 86.6 °F 66.2 °F 55% 29.94 in 10.0 mi South 13.8 mph 20.7 mph N/A   Clear
12:15 PM 86.0 °F 88.2 °F 66.2 °F 51% 29.94 in 10.0 mi South 11.5 mph 18.4 mph N/A   Clear
12:35 PM 87.8 °F 90.4 °F 66.2 °F 49% 29.95 in 10.0 mi South 11.5 mph - N/A   Clear
12:55 PM 87.8 °F 90.4 °F 66.2 °F 49% 29.96 in 10.0 mi South 10.4 mph - N/A   Clear
1:15 PM 87.8 °F 90.4 °F 66.2 °F 49% 29.96 in 10.0 mi South 9.2 mph - N/A   Clear
1:35 PM 89.6 °F 92.2 °F 66.2 °F 46% 29.95 in 10.0 mi SSW 13.8 mph - N/A   Clear
1:55 PM 89.6 °F 92.2 °F 66.2 °F 46% 29.95 in 10.0 mi South 13.8 mph - N/A   Clear
2:15 PM 89.6 °F 92.2 °F 66.2 °F 46% 29.95 in 10.0 mi South 15.0 mph - N/A   Clear
2:35 PM 87.8 °F 90.4 °F 66.2 °F 49% 29.95 in 10.0 mi SSE 10.4 mph 17.3 mph N/A   Clear
2:55 PM 89.6 °F 92.2 °F 66.2 °F 46% 29.95 in 10.0 mi South 10.4 mph 18.4 mph N/A   Clear
3:15 PM 89.6 °F 92.2 °F 66.2 °F 46% 29.94 in 10.0 mi South 10.4 mph 16.1 mph N/A   Clear
3:35 PM 91.4 °F 95.4 °F 68.0 °F 46% 29.94 in 10.0 mi South 16.1 mph - N/A   Clear
3:55 PM 89.6 °F 92.2 °F 66.2 °F 46% 29.94 in 10.0 mi South 17.3 mph 23.0 mph N/A   Clear
4:15 PM 91.4 °F 94.0 °F 66.2 °F 43% 29.94 in 10.0 mi South 15.0 mph 23.0 mph N/A   Clear
4:35 PM 91.4 °F 94.0 °F 66.2 °F 43% 29.94 in 10.0 mi South 18.4 mph 21.9 mph N/A   Clear
4:55 PM 91.4 °F 94.0 °F 66.2 °F 43% 29.93 in 10.0 mi South 15.0 mph 20.7 mph N/A   Clear
5:15 PM 91.4 °F 94.0 °F 66.2 °F 43% 29.93 in 10.0 mi South 13.8 mph 20.7 mph N/A   Clear
5:35 PM 89.6 °F 92.2 °F 66.2 °F 46% 29.92 in 10.0 mi SSE 11.5 mph 23.0 mph N/A   Clear
5:55 PM 89.6 °F 93.4 °F 68.0 °F 49% 29.92 in 10.0 mi South 12.7 mph 19.6 mph N/A   Clear
6:15 PM 87.8 °F 91.4 °F 68.0 °F 52% 29.93 in 10.0 mi South 10.4 mph - N/A   Clear
6:35 PM 87.8 °F 91.4 °F 68.0 °F 52% 29.92 in 10.0 mi South 15.0 mph - N/A   Clear
7:15 PM 84.2 °F 88.4 °F 69.8 °F 62% 29.94 in 10.0 mi SE 9.2 mph - N/A   Clear
7:35 PM 82.4 °F 86.3 °F 69.8 °F 66% 29.93 in 10.0 mi SE 9.2 mph 16.1 mph N/A   Clear
7:55 PM 82.4 °F 86.3 °F 69.8 °F 66% 29.94 in 10.0 mi SE 9.2 mph - N/A   Clear
8:15 PM 80.6 °F 83.9 °F 69.8 °F 70% 29.94 in 10.0 mi SSE 8.1 mph - N/A   Clear
8:35 PM 80.6 °F 83.2 °F 68.0 °F 65% 29.94 in 10.0 mi SE 10.4 mph 17.3 mph N/A   Clear
8:55 PM 78.8 °F - 66.2 °F 65% 29.94 in 10.0 mi SE 9.2 mph 17.3 mph N/A   Clear
9:15 PM 78.8 °F - 66.2 °F 65% 29.94 in 10.0 mi SE 9.2 mph 19.6 mph N/A   Clear
9:35 PM 78.8 °F - 66.2 °F 65% 29.95 in 10.0 mi SSE 13.8 mph 20.7 mph N/A   Clear
9:55 PM 78.8 °F - 66.2 °F 65% 29.95 in 10.0 mi SSE 10.4 mph 18.4 mph N/A   Clear
10:15 PM 78.8 °F - 66.2 °F 65% 29.97 in 10.0 mi SE 9.2 mph - N/A   Clear
10:35 PM 77.0 °F - 64.4 °F 65% 29.98 in 10.0 mi SSE 12.7 mph 17.3 mph N/A   Clear
10:55 PM 77.0 °F - 64.4 °F 65% 29.99 in 10.0 mi SE 10.4 mph 17.3 mph N/A   Clear
11:15 PM 75.2 °F - 64.4 °F 69% 30.00 in 10.0 mi SSE 10.4 mph 16.1 mph N/A   Clear
11:35 PM 75.2 °F - 64.4 °F 69% 30.01 in 10.0 mi SSE 8.1 mph 16.1 mph N/A   Clear
11:55 PM 75.2 °F - 64.4 °F 69% 30.01 in 10.0 mi SSE 8.1 mph - N/A   Clear